User: anonymous   Login
Location: Coopersdale
(40.3556°N, 78.9372°W)
Time: 00:33:10
(UTC+00:00)
Language:

Transit 4A - Orbit

View from above orbital plane
View from above orbital plane
View from above satellite
View from above satellite

Ground track
Ground track

The orbit data is extracted from the following two-line orbital elements,

1 00116U 61015A   21138.34314835 -.00000048  00000-0  22302-4 0  9993
2 00116  66.8086 109.5214 0070616 138.1826 222.4680 13.91789200 38415
Epoch (UTC): 18 May 2021 08:14:08
Eccentricity: 0.0070616
inclination: 66.8086°
perigee height: 871 km
apogee height: 974 km
right ascension of ascending node: 109.5214°
argument of perigee: 138.1826°
revolutions per day: 13.91789200
mean anomaly at epoch: 222.4680°
orbit number at epoch: 3841

The dashed part of the orbit path shows where the satellite is in the earth's shadow,  

DLR